Sparta, TN

12:50 PM CST on February 10, 2016 (GMT -0600)
Upper Cumberland Regional

Weather History for KSRB - September, 2014

Change the Weather History Date:

Tuesday, September 9, 2014

  Actual Average (KCSV) Record (KCSV)
Temperature  
Mean Temperature 76 °F 70 °F  
Max Temperature 87 °F 80 °F 92 °F (1954)
Min Temperature 64 °F 60 °F 41 °F (1958)
Degree Days  
Heating Degree Days 0    
Month to date heating degree days  
Since 1 July heating degree days  
Cooling Degree Days 10    
Month to date cooling degree days  
Year to date cooling degree days  
Growing Degree Days 26 (Base 50)    
Moisture  
Dew Point 70 °F    
Average Humidity 84    
Maximum Humidity 100    
Minimum Humidity 58    
Precipitation  
Precipitation 0.00 in 0.13 in 1.12 in (2015)
Month to date precipitation 1.10  
Year to date precipitation 39.22  
Sea Level Pressure  
Sea Level Pressure 30.07 in    
Wind  
Wind Speed 2 mph (South)    
Max Wind Speed 7 mph    
Max Gust Speed -    
Visibility 9 miles    
Events      
T = Trace of Precipitation, MM = Missing Value Source: NWS Daily Summary

Daily Weather History Graph

Daily Weather History Graph

Search for Another Location

Airport or City:

Trip Planner

Search our weather history database for the weather conditions in past years. The results will help you decide how hot, cold, wet, or windy it might be!

Date:

Astronomy

Sep. 09, 2014 Rise Set
Actual Time 6:20 AM CDT 6:58 PM CDT
Civil Twilight 5:54 AM CDT 7:24 PM CDT
Nautical Twilight 5:23 AM CDT 7:54 PM CDT
Astronomical Twilight 4:52 AM CDT 8:25 PM CDT
Moon 7:20 PM CDT (9/9) 6:53 AM CDT (9/9)
Length of Visible Light 13h 29m
Length of Day
12h 38m
Waxing Gibbous, 99% of the Moon is Illuminated
Sep 9
Waxing Gibbous
Sep 15
Last Quarter
Sep 24
New
Oct 1
First Quarter
Oct 8
Full

Hourly Weather History & Observations

Time (CDT) Temp. Heat Index Dew Point Humidity Pressure Visibility Wind Dir Wind Speed Gust Speed Precip Events Conditions
12:15 AM 64.4 °F - 64.4 °F 100% 30.08 in 7.0 mi Calm Calm - N/A   Clear
12:35 AM 66.2 °F - 66.2 °F 100% 30.08 in 6.0 mi Calm Calm - N/A   Partly Cloudy
12:55 AM 66.2 °F - 66.2 °F 100% 30.08 in 8.0 mi Calm Calm - N/A   Scattered Clouds
1:15 AM 66.2 °F - 66.2 °F 100% 30.08 in 8.0 mi Calm Calm - N/A   Mostly Cloudy
1:35 AM 66.2 °F - 66.2 °F 100% 30.08 in 8.0 mi Calm Calm - N/A   Mostly Cloudy
1:55 AM 66.2 °F - 66.2 °F 100% 30.08 in 7.0 mi Calm Calm - N/A   Unknown
2:15 AM 68.0 °F - 66.2 °F 94% 30.08 in 9.0 mi Calm Calm - N/A   Mostly Cloudy
2:35 AM 68.0 °F - 68.0 °F 100% 30.07 in 10.0 mi Calm Calm - N/A   Overcast
2:55 AM 69.8 °F - 68.0 °F 94% 30.07 in 9.0 mi Calm Calm - N/A   Overcast
3:15 AM 69.8 °F - 68.0 °F 94% 30.07 in 9.0 mi Calm Calm - N/A   Overcast
3:35 AM 69.8 °F - 68.0 °F 94% 30.07 in 10.0 mi Calm Calm - N/A   Overcast
3:55 AM 69.8 °F - 69.8 °F 100% 30.07 in 10.0 mi Calm Calm - N/A   Overcast
4:15 AM 69.8 °F - 68.0 °F 94% 30.08 in 8.0 mi Calm Calm - N/A   Overcast
4:35 AM 69.8 °F - 68.0 °F 94% 30.08 in 8.0 mi Calm Calm - N/A   Mostly Cloudy
4:55 AM 69.8 °F - 69.8 °F 100% 30.08 in 9.0 mi Calm Calm - N/A   Mostly Cloudy
5:15 AM 69.8 °F - 68.0 °F 94% 30.09 in 7.0 mi Calm Calm - N/A   Mostly Cloudy
5:35 AM 69.8 °F - 68.0 °F 94% 30.09 in 6.0 mi Calm Calm - N/A   Mostly Cloudy
5:55 AM 69.8 °F - 68.0 °F 94% 30.09 in 7.0 mi Calm Calm - N/A   Overcast
6:15 AM 69.8 °F - 69.8 °F 100% 30.09 in 8.0 mi Calm Calm - N/A   Mostly Cloudy
6:35 AM 69.8 °F - 69.8 °F 100% 30.09 in 8.0 mi Calm Calm - N/A   Mostly Cloudy
6:55 AM 69.8 °F - 69.8 °F 100% 30.10 in 8.0 mi Calm Calm - N/A   Mostly Cloudy
7:15 AM 71.6 °F - 69.8 °F 94% 30.10 in 10.0 mi South 3.5 mph - N/A   Overcast
7:35 AM 71.6 °F - 69.8 °F 94% 30.11 in 10.0 mi South 3.5 mph - N/A   Overcast
7:55 AM 71.6 °F - 69.8 °F 94% 30.11 in 10.0 mi South 4.6 mph - N/A   Overcast
8:15 AM 73.4 °F - 71.6 °F 94% 30.11 in 10.0 mi South 4.6 mph - N/A   Overcast
8:35 AM 73.4 °F - 71.6 °F 94% 30.11 in 10.0 mi South 5.8 mph - N/A   Mostly Cloudy
8:55 AM 75.2 °F - 71.6 °F 89% 30.11 in 10.0 mi South 5.8 mph - N/A   Mostly Cloudy
9:15 AM 77.0 °F - 71.6 °F 83% 30.10 in 10.0 mi SSW 5.8 mph - N/A   Mostly Cloudy
9:55 AM 78.8 °F - 71.6 °F 78% 30.12 in 10.0 mi SSW 4.6 mph - N/A   Overcast
10:15 AM 78.8 °F - 71.6 °F 78% 30.12 in 10.0 mi SSW 4.6 mph - N/A   Overcast
10:35 AM 78.8 °F - 71.6 °F 78% 30.12 in 10.0 mi SSW 4.6 mph - N/A   Overcast
10:55 AM 80.6 °F 85.4 °F 73.4 °F 79% 30.12 in 10.0 mi WSW 3.5 mph - N/A   Mostly Cloudy
11:15 AM 82.4 °F 88.2 °F 73.4 °F 74% 30.11 in 10.0 mi SSW 4.6 mph - N/A   Scattered Clouds
11:35 AM 82.4 °F 88.2 °F 73.4 °F 74% 30.11 in 10.0 mi WSW 3.5 mph - N/A   Scattered Clouds
11:55 AM 84.2 °F 90.9 °F 73.4 °F 70% 30.11 in 10.0 mi WSW 3.5 mph - N/A   Scattered Clouds
12:15 PM 82.4 °F 88.2 °F 73.4 °F 74% 30.11 in 10.0 mi WSW 4.6 mph - N/A   Scattered Clouds
12:35 PM 86.0 °F 93.4 °F 73.4 °F 66% 30.10 in 10.0 mi Variable 4.6 mph - N/A   Partly Cloudy
12:55 PM 86.0 °F 91.8 °F 71.6 °F 62% 30.09 in 10.0 mi WSW 4.6 mph - N/A   Partly Cloudy
1:15 PM 86.0 °F 91.8 °F 71.6 °F 62% 30.08 in 10.0 mi Variable 4.6 mph - N/A   Partly Cloudy
1:35 PM 86.0 °F 91.8 °F 71.6 °F 62% 30.07 in 10.0 mi SW 4.6 mph - N/A   Scattered Clouds
2:35 PM 86.0 °F 91.8 °F 71.6 °F 62% 30.05 in 10.0 mi SSW 6.9 mph - N/A   Mostly Cloudy
2:55 PM 87.8 °F 93.8 °F 71.6 °F 58% 30.04 in 10.0 mi Variable 4.6 mph - N/A   Scattered Clouds
3:15 PM 87.8 °F 93.8 °F 71.6 °F 58% 30.04 in 10.0 mi WSW 6.9 mph - N/A   Partly Cloudy
3:35 PM 86.0 °F 91.8 °F 71.6 °F 62% 30.04 in 10.0 mi SW 3.5 mph - N/A   Mostly Cloudy
4:15 PM 86.0 °F 91.8 °F 71.6 °F 62% 30.03 in 10.0 mi Calm Calm - N/A   Scattered Clouds
4:35 PM 84.2 °F 92.3 °F 75.2 °F 74% 30.03 in 10.0 mi Calm Calm - N/A   Clear
4:55 PM 84.2 °F 89.6 °F 71.6 °F 66% 30.02 in 10.0 mi Calm Calm - N/A   Clear
5:15 PM 86.0 °F 91.8 °F 71.6 °F 62% 30.01 in 10.0 mi Calm Calm - N/A   Clear
5:35 PM 84.2 °F 89.6 °F 71.6 °F 66% 30.01 in 10.0 mi South 3.5 mph - N/A   Clear
5:55 PM 82.4 °F 88.2 °F 73.4 °F 74% 30.01 in 10.0 mi South 6.9 mph - N/A   Partly Cloudy
6:15 PM 80.6 °F 84.6 °F 71.6 °F 74% 30.02 in 10.0 mi SE 3.5 mph - N/A   Scattered Clouds
6:35 PM 80.6 °F 84.6 °F 71.6 °F 74% 30.02 in 10.0 mi Calm Calm - N/A   Partly Cloudy
6:55 PM 78.8 °F - 71.6 °F 78% 30.02 in 10.0 mi Calm Calm - N/A   Partly Cloudy
7:15 PM 75.2 °F - 71.6 °F 89% 30.02 in 10.0 mi SE 3.5 mph - N/A   Partly Cloudy
7:35 PM 75.2 °F - 69.8 °F 83% 30.02 in 10.0 mi SE 4.6 mph - N/A   Clear
7:55 PM 75.2 °F - 69.8 °F 83% 30.02 in 10.0 mi ESE 3.5 mph - N/A   Clear
8:15 PM 75.2 °F - 69.8 °F 83% 30.02 in 10.0 mi SE 3.5 mph - N/A   Clear
8:35 PM 75.2 °F - 69.8 °F 83% 30.02 in 10.0 mi SSE 3.5 mph - N/A   Clear
8:55 PM 75.2 °F - 69.8 °F 83% 30.03 in 10.0 mi Calm Calm - N/A   Clear
9:15 PM 73.4 °F - 69.8 °F 88% 30.03 in 10.0 mi South 3.5 mph - N/A   Clear
9:35 PM 73.4 °F - 69.8 °F 88% 30.03 in 10.0 mi South 4.6 mph - N/A   Clear
9:55 PM 73.4 °F - 69.8 °F 88% 30.03 in 10.0 mi South 4.6 mph - N/A   Clear
10:15 PM 73.4 °F - 69.8 °F 88% 30.03 in 10.0 mi South 6.9 mph - N/A   Clear
10:35 PM 73.4 °F - 69.8 °F 88% 30.03 in 10.0 mi South 5.8 mph - N/A   Clear
10:55 PM 73.4 °F - 69.8 °F 88% 30.03 in 10.0 mi South 4.6 mph - N/A   Scattered Clouds
11:15 PM 73.4 °F - 69.8 °F 88% 30.03 in 10.0 mi South 3.5 mph - N/A   Scattered Clouds
11:35 PM 73.4 °F - 69.8 °F 88% 30.02 in 10.0 mi South 3.5 mph - N/A   Clear
11:55 PM 73.4 °F - 69.8 °F 88% 30.03 in 10.0 mi South 4.6 mph - N/A   Partly Cloudy